Change the Weather History Date:

Friday, February 7, 2014

  Actual Average Record
Temperature  
Mean Temperature 1 °F 26 °F  
Max Temperature 21 °F 37 °F 63 °F (2015)
Min Temperature -19 °F 15 °F -19 °F (2014)
Degree Days  
Heating Degree Days 64 39  
Month to date heating degree days 442 273  
Since 1 July heating degree days 4745 4628  
Cooling Degree Days 0 0  
Month to date cooling degree days 0 0  
Year to date cooling degree days 0 0  
Moisture  
Dew Point -1 °F    
Average Humidity 68    
Maximum Humidity 80    
Minimum Humidity 56    
Precipitation  
Precipitation 0.02 in 0.02 in 0.02 in (2014)
Month to date precipitation 0.19 0.11  
Year to date precipitation 0.58 0.50  
Sea Level Pressure  
Sea Level Pressure 29.95 in    
Wind  
Wind Speed 7 mph (SW)    
Max Wind Speed 23 mph    
Max Gust Speed 26 mph    
Visibility 9 miles    
Events Snow    
T = Trace of Precipitation, MM = Missing Value Source: NWS Daily Summary

Daily Weather History Graph

Daily Weather History Graph

Search for Another Location

Airport or City:

Trip Planner

Search our weather history database for the weather conditions in past years. The results will help you decide how hot, cold, wet, or windy it might be!

Date:

Astronomy

Feb. 07, 2014 Rise Set
Actual Time 7:12 AM MST 5:20 PM MST
Civil Twilight 6:42 AM MST 5:50 PM MST
Nautical Twilight 6:08 AM MST 6:25 PM MST
Astronomical Twilight 5:34 AM MST 6:58 PM MST
Moon 11:31 AM MST (2/7) 1:33 AM MST (2/7)
Length of Visible Light 11h 08m
Length of Day
10h 07m
First Quarter, 60% of the Moon is Illuminated
Feb 7
First Quarter
Feb 14
Full
Feb 22
Last Quarter
Mar 1
New
Mar 8
First Quarter

Hourly Weather History & Observations

Time (MST) Temp. Windchill Dew Point Humidity Pressure Visibility Wind Dir Wind Speed Gust Speed Precip Events Conditions
12:53 AM -16.1 °F - -22.0 °F 74% 30.18 in 10.0 mi Calm Calm - N/A   Clear
1:53 AM -15.0 °F - -20.9 °F 75% 30.17 in 10.0 mi Calm Calm - N/A   Clear
2:53 AM -17.0 °F - -22.0 °F 78% 30.16 in 10.0 mi Calm Calm - N/A   Clear
3:53 AM -15.0 °F - -20.9 °F 75% 30.14 in 10.0 mi Calm Calm - N/A   Clear
4:53 AM -11.0 °F -22.8 °F -18.0 °F 71% 30.12 in 10.0 mi SSE 4.6 mph - N/A   Clear
5:53 AM -18.0 °F - -24.0 °F 74% 30.14 in 10.0 mi Calm Calm - N/A   Clear
6:53 AM -14.1 °F - -20.0 °F 75% 30.12 in 10.0 mi Calm Calm - N/A   Clear
7:53 AM -0.9 °F -14.1 °F -11.9 °F 60% 30.07 in 10.0 mi SSE 6.9 mph - N/A   Clear
8:53 AM 3.0 °F -13.3 °F -9.0 °F 57% 30.04 in 10.0 mi SSE 11.5 mph - N/A   Clear
9:53 AM 7.0 °F -12.6 °F -2.9 °F 64% 29.99 in 10.0 mi South 19.6 mph - N/A   Clear
10:53 AM 12.9 °F -5.3 °F 1.0 °F 59% 29.95 in 10.0 mi South 20.7 mph - N/A   Clear
11:53 AM 15.1 °F -1.1 °F 5.0 °F 64% 29.91 in 10.0 mi South 17.3 mph - N/A   Partly Cloudy
12:53 PM 17.1 °F 3.6 °F 7.0 °F 65% 29.88 in 10.0 mi SE 12.7 mph - N/A   Mostly Cloudy
1:53 PM 19.9 °F 8.6 °F 10.0 °F 65% 29.84 in 10.0 mi SSE 10.4 mph - 0.01 in   Overcast
2:53 PM 19.9 °F 10.1 °F 10.0 °F 65% 29.83 in 10.0 mi SSE 8.1 mph - N/A   Clear
3:53 PM 19.9 °F 9.3 °F 10.0 °F 65% 29.83 in 10.0 mi South 9.2 mph - N/A   Clear
4:53 PM 18.0 °F 8.7 °F 10.0 °F 71% 29.86 in 10.0 mi NNW 6.9 mph - N/A   Overcast
5:41 PM 17.6 °F 10.7 °F 10.4 °F 73% 29.67 in 2.5 mi North 4.6 mph - 0.01 in Snow Light Snow
5:48 PM 17.6 °F 6.4 °F 12.2 °F 79% 29.69 in 1.0 mi NNW 9.2 mph - 0.01 in Snow Light Snow
5:53 PM 16.0 °F 2.9 °F 12.0 °F 84% 29.96 in 1.5 mi NNW 11.5 mph - 0.01 in Snow Light Snow
5:56 PM 15.8 °F 4.2 °F 12.2 °F 86% 29.68 in 3.0 mi NNW 9.2 mph - 0.00 in Snow Light Snow
6:05 PM 15.8 °F 5.1 °F 10.4 °F 79% 29.68 in 9.0 mi NNW 8.1 mph - 0.00 in   Mostly Cloudy
6:53 PM 10.9 °F 2.9 °F 6.1 °F 81% 29.99 in 10.0 mi NW 4.6 mph - 0.00 in   Clear
7:53 PM 10.0 °F 3.6 °F 5.0 °F 80% 29.97 in 10.0 mi West 3.5 mph - N/A   Clear
8:53 PM 10.0 °F - 3.9 °F 76% 29.97 in 10.0 mi Calm Calm - N/A   Clear
9:53 PM 8.1 °F - 3.0 °F 80% 29.97 in 10.0 mi Calm Calm - N/A   Partly Cloudy
10:20 PM 10.4 °F -6.6 °F 3.2 °F 73% 29.76 in 10.0 mi WSW 16.1 mph - N/A   Clear
10:53 PM 12.0 °F -5.1 °F 5.0 °F 73% 29.95 in 10.0 mi WSW 17.3 mph - N/A   Clear
11:53 PM 12.0 °F -3.4 °F 5.0 °F 73% 29.95 in 10.0 mi West 13.8 mph - N/A   Clear